Flag for Kazakhstan Weather past 2 weeks in Shymkent, Kazakhstan

Now
54 °F

Sprinkles. Fog.


Feels Like: 51 °F
Forecast: 49 / 66 °F
Wind: 8 mph from West

Location: Shymkent Airport

Current Time: Oct 23, 2014 at 10:53:35 PM

Latest Report: Oct 23, 2014 at 10:30 PM


Visibility: 2 mi

Pressure: 30.18 "Hg

Humidity: 88%

Dew point: 50 °F

Location of ShymkentLocation

Historic Weather in Shymkent — Graph

°F

Shymkent temperature yesterday

Maximum temperature yesterday: 77 °F (at 1:00 PM)
Minimum temperature yesterday: 48 °F (at 2:30 AM)
Average temperature yesterday: 63 °F

Past Weeks' High & Low Weather Summary

 TemperatureHumidityPressure
High82 °F (Oct 20, 12:30 PM)88% (Oct 21, 1:00 AM)30.63 "Hg (Oct 21, 1:00 AM)
Low34 °F (Oct 9, 4:00 AM)7% (Oct 18, 3:00 PM)29.74 "Hg (Oct 19, 12:30 AM)
Average56 °F51%30.14 "Hg
* Reported Oct 8 9:00 PM — Oct 23 9:30 PM, Shymkent, Weather by CustomWeather, © 2014

Note: Actual official high and low records may vary slightly from our data, if they occured in-between our weather recording intervals... More about our weather records

Advertising

Shymkent weather history for previous 24 hours

 ConditionsComfort  
Time TempWeatherWind HumidityBarometerVisibility
9:30 PM
Oct 23
55 °FSprinkles. Fog.8 mph88%30.15 "Hg1 mi
9:00 PM55 °FSprinkles. Fog.8 mph82%30.15 "Hg1 mi
8:30 PM55 °FSprinkles. Fog.6 mph88%30.15 "Hg2 mi
8:00 PM55 °FSprinkles. Fog.3 mph88%30.15 "Hg2 mi
7:30 PM55 °FSprinkles. Fog.8 mph88%30.15 "Hg2 mi
7:00 PM55 °FSprinkles. Fog.13 mph82%30.12 "Hg2 mi
6:30 PM55 °FSprinkles. Fog.6 mph82%30.12 "Hg2 mi
6:00 PM57 °FMostly cloudy.6 mph77%30.12 "HgN/A
5:30 PM57 °FMostly cloudy.6 mph77%30.09 "HgN/A
5:00 PM57 °FMostly cloudy.8 mph77%30.09 "Hg5 mi
4:30 PM57 °FSprinkles. Mostly cloudy.15 mph82%30.09 "Hg5 mi
4:00 PM57 °FSprinkles. Mostly cloudy.15 mph82%30.09 "Hg5 mi
3:30 PM57 °FSprinkles. Mostly cloudy.8 mph82%30.07 "Hg5 mi
3:00 PM57 °FSprinkles. Mostly cloudy.8 mph82%30.07 "Hg5 mi
2:30 PM59 °FSprinkles. Mostly cloudy.6 mph82%30.07 "Hg5 mi
2:00 PM59 °FSprinkles. More clouds than sun.6 mph82%30.07 "Hg5 mi
1:30 PM59 °FSprinkles. Fog.15 mph82%30.07 "Hg2 mi
1:00 PM59 °FMostly cloudy.13 mph77%30.07 "HgN/A
12:30 PM59 °FMostly cloudy.15 mph82%30.04 "HgN/A
12:00 PM59 °FMostly cloudy.10 mph77%30.04 "HgN/A
11:30 AM59 °FMostly cloudy.8 mph82%30.04 "HgN/A
11:00 AM61 °FMore clouds than sun.10 mph72%30.01 "HgN/A
10:30 AM61 °FMostly cloudy.10 mph77%30.01 "HgN/A
10:00 AM63 °FMostly cloudy.3 mph73%29.98 "HgN/A
9:30 AM61 °FSprinkles. Mostly cloudy.3 mph77%29.98 "HgN/A
9:00 AM61 °FMostly cloudy.15 mph72%29.98 "HgN/A
8:30 AM61 °FMostly cloudy.10 mph72%29.95 "HgN/A
8:00 AM61 °FMostly cloudy.13 mph72%29.95 "HgN/A
7:30 AM63 °FSprinkles. Overcast.No wind68%29.89 "HgN/A
7:00 AM66 °FSprinkles. Overcast.6 mph56%29.92 "HgN/A
6:30 AM64 °FMostly cloudy.6 mph68%29.92 "HgN/A
6:00 AM64 °FSprinkles. Mostly cloudy.6 mph68%29.89 "HgN/A
5:30 AM64 °FMostly cloudy.13 mph64%29.89 "HgN/A
5:00 AM63 °FMostly cloudy.10 mph68%29.86 "HgN/A
4:30 AM63 °FMostly cloudy.8 mph68%29.89 "HgN/A
4:00 AM61 °FMostly cloudy.3 mph72%29.86 "HgN/A
3:30 AM59 °FMostly cloudy.1 mph77%29.86 "HgN/A
3:00 AM59 °FMostly cloudy.No wind77%29.83 "HgN/A
2:30 AM61 °FMostly cloudy.3 mph72%29.83 "HgN/A
2:00 AM61 °FMostly cloudy.1 mph68%29.80 "HgN/A
1:30 AM63 °FMostly cloudy.6 mph64%29.77 "HgN/A
1:00 AM63 °FMostly cloudy.6 mph64%29.77 "HgN/A
12:30 AM63 °FMostly cloudy.6 mph68%29.80 "HgN/A
12:00 AM64 °FMostly cloudy.8 mph64%29.80 "HgN/A
11:30 PM
Oct 22
64 °FOvercast.6 mph64%29.83 "Hg5 mi
11:00 PM66 °FOvercast.6 mph60%29.83 "Hg5 mi
10:30 PM68 °FOvercast.1 mph60%29.86 "Hg4 mi
10:00 PM66 °FOvercast.6 mph68%29.86 "Hg4 mi
Weather by CustomWeather, © 2014

See weather overviewHow to use our weather pages